Temperature
7 7 7 7 7 6 6 6 6 6 6 5 5 5 5 5 5 5 4 4 4 4 4 4 4 4 3 3 3 3 3 2 2 3 3 3 3 3 4 4 4 4 4
7 7 7 6 6 6 6 6 6 5 5 5 5 5 5 4 4 4 4 4 4 4 4 3 3 3 3 3 3 2 2 2 2 2 2 2 3 3 3 3 3 3 4
6 6 6 6 6 6 5 5 5 5 5 4 4 4 4 4 4 4 4 3 3 3 3 3 3 2 2 2 2 2 2 2 2 2 2 2 2 2 2 3 3 3 3
6 6 5 5 5 5 5 5 4 4 4 4 4 4 4 3 3 3 3 3 3 3 3 2 2 2 2 2 1 1 1 1 1 1 1 1 2 2 2 2 2 2 2
5 5 5 5 5 4 4 4 4 4 4 4 3 3 3 3 3 3 2 2 2 2 2 2 2 2 1 1 1 1 1 1 1 1 1 1 1 1 1 1 1 1 1
5 5 5 4 4 4 4 4 4 3 3 3 3 3 3 3 2 2 2 2 2 2 2 2 1 1 1 1 1 1 1 0 0 -0 0 0 0 0 0 0 0 0 0
5 4 4 4 4 4 3 3 3 3 3 3 3 3 2 2 2 2 2 1 1 1 1 1 1 1 1 0 0 0 0 0 -0 -0 -1 -1 -0 -0 -0 -0 -0 -0 -0
4 4 4 3 3 3 3 3 3 3 3 2 2 2 2 2 2 2 1 1 1 1 1 1 0 0 0 0 -0 -0 -0 -0 -0 -1 -1 -1 -1 -1 -1 -1 -1 -1 -0
4 3 3 3 3 3 3 3 2 2 2 2 2 2 2 2 2 1 1 1 1 1 1 0 0 -0 -0 -0 -1 -1 -1 -1 -1 -1 -1 -1 -1 -1 -1 -1 -1 -1 -1
3 3 3 3 2 2 2 2 2 2 2 2 2 2 1 1 1 1 1 0 0 0 0 0 -0 -0 -0 -1 -1 -1 -1 -1 -1 -1 -1 -1 -1 -1 -1 -1 -2 -2 -2
3 2 2 2 2 2 2 2 2 1 1 1 1 1 1 1 1 1 0 -0 -0 -0 -0 -0 -0 -1 -1 -1 -1 -1 -1 -2 -2 -2 -2 -2 -1 -2 -2 -2 -2 -2 -2
2 2 2 2 1 1 1 1 1 1 1 1 1 0 0 0 0 0 -0 -0 -1 -1 -1 -1 -1 -1 -1 -1 -2 -2 -2 -2 -2 -2 -2 -2 -2 -2 -2 -2 -2 -2 -3
1 1 1 1 1 1 1 1 1 1 0 0 0 0 0 -0 -0 -0 -0 -1 -1 -1 -1 -1 -2 -2 -2 -2 -2 -2 -2 -2 -2 -2 -2 -2 -3 -3 -3 -3 -3 -3 -3
1 1 1 1 1 1 1 1 0 0 -0 -0 -0 -0 -0 -0 -0 -1 -1 -1 -1 -2 -2 -2 -2 -2 -2 -2 -2 -2 -2 -3 -3 -3 -3 -3 -3 -3 -3 -3 -3 -3 -3
0 0 0 0 0 0 0 0 -0 -0 -0 -0 -0 -0 -1 -1 -1 -1 -1 -1 -2 -2 -2 -2 -2 -2 -2 -2 -3 -3 -3 -3 -3 -3 -4 -4 -4 -4 -4 -4 -4 -4 -4
-0 -0 -0 -0 -0 -0 -1 -1 -1 -1 -1 -1 -1 -1 -1 -1 -1 -1 -2 -2 -2 -2 -3 -3 -3 -3 -3 -3 -3 -3 -3 -3 -4 -4 -4 -4 -4 -4 -4 -4 -4 -4 -4
-1 -1 -1 -1 -1 -1 -1 -1 -1 -1 -1 -1 -1 -1 -1 -1 -1 -2 -2 -2 -2 -3 -3 -3 -3 -3 -3 -4 -4 -4 -4 -4 -4 -4 -4 -5 -5 -5 -5 -5 -5 -5 -5
-1 -1 -1 -1 -1 -1 -1 -1 -2 -2 -2 -1 -2 -2 -2 -2 -2 -2 -2 -3 -3 -3 -3 -3 -3 -3 -4 -4 -4 -4 -4 -5 -5 -5 -5 -5 -5 -5 -5 -5 -5 -6 -6
-2 -2 -2 -2 -2 -2 -2 -2 -2 -2 -2 -2 -2 -2 -2 -2 -2 -3 -3 -3 -3 -3 -3 -3 -4 -4 -4 -4 -5 -5 -5 -5 -5 -5 -5 -5 -5 -5 -5 -6 -6 -6 -6
-2 -2 -2 -2 -2 -2 -2 -2 -3 -3 -3 -3 -3 -3 -3 -3 -3 -3 -3 -3 -3 -3 -3 -4 -4 -4 -4 -5 -5 -5 -5 -5 -5 -5 -5 -5 -5 -6 -6 -6 -6 -6 -6
-2 -2 -2 -3 -3 -3 -3 -3 -3 -3 -3 -3 -3 -3 -3 -3 -3 -3 -3 -3 -3 -4 -4 -4 -4 -4 -5 -5 -5 -5 -5 -5 -5 -6 -6 -6 -6 -6 -6 -6 -6 -7 -7
-3 -3 -3 -3 -3 -3 -3 -3 -3 -3 -3 -3 -3 -3 -3 -4 -4 -4 -4 -4 -4 -4 -4 -4 -5 -5 -5 -5 -5 -5 -6 -6 -6 -6 -6 -6 -6 -6 -7 -7 -7 -7 -7
-3 -3 -3 -3 -3 -3 -3 -3 -3 -3 -4 -4 -4 -4 -4 -4 -4 -4 -4 -4 -4 -4 -4 -5 -5 -5 -5 -5 -6 -6 -6 -6 -6 -6 -6 -6 -6 -7 -7 -7 -7 -7 -7
-3 -3 -3 -3 -4 -4 -4 -4 -4 -4 -4 -4 -4 -4 -4 -4 -4 -4 -4 -4 -4 -5 -5 -5 -5 -5 -5 -5 -6 -6 -6 -6 -6 -6 -6 -7 -7 -7 -7 -7 -7 -7 -8
-3 -4 -4 -4 -4 -4 -4 -4 -4 -4 -4 -4 -4 -4 -4 -4 -4 -4 -4 -5 -5 -5 -5 -5 -5 -5 -6 -6 -6 -6 -6 -6 -6 -6 -7 -7 -7 -7 -7 -7 -7 -8 -8
-4 -4 -4 -4 -4 -4 -4 -4 -4 -4 -4 -4 -5 -5 -5 -5 -5 -5 -5 -5 -5 -5 -5 -6 -6 -6 -6 -6 -6 -6 -7 -7 -7 -7 -7 -7 -7 -7 -7 -7 -8 -8 -8
Wind_Speed
4 4 5 5 5 5 5 5 5 5 5 5 5 5 4 5 5 5 5 5 6 5 5 5 6 6 5 4 5 5 6 6 9 8 6 6 7 7 6 7 8 7 6
4 4 5 5 5 5 6 5 5 6 5 6 5 5 5 5 5 5 6 6 6 6 6 6 6 5 6 5 5 5 6 7 7 9 8 6 7 7 7 7 6 6 7
4 4 4 5 5 6 6 5 6 6 6 6 6 6 6 6 6 6 6 6 7 7 7 7 6 6 6 5 6 6 6 6 6 7 8 6 6 5 7 6 6 6 6
4 4 5 5 5 6 5 6 6 6 6 6 6 6 6 6 6 6 6 7 7 7 7 7 7 7 7 7 6 7 6 6 6 7 7 7 6 6 5 5 6 5 5
5 5 6 5 5 5 5 6 6 6 7 6 6 7 6 6 6 7 7 7 7 7 7 7 7 7 7 7 6 6 6 6 6 6 7 6 6 5 5 5 6 6 6
6 6 6 5 5 6 6 6 6 6 7 7 7 7 7 7 8 9 8 7 8 8 7 7 7 7 8 9 9 9 8 7 7 7 7 7 7 6 5 5 6 6 5
6 6 6 6 6 6 6 6 7 7 7 7 8 8 8 8 9 10 11 8 8 8 8 7 6 6 7 7 8 9 9 10 10 8 8 8 8 7 6 7 7 7 7
6 6 6 6 6 6 6 7 7 7 7 7 8 8 8 8 10 11 10 9 9 9 8 8 8 7 7 7 7 7 8 8 8 8 8 8 8 7 7 7 7 7 7
7 7 6 6 7 7 7 8 7 7 7 8 7 8 8 9 9 10 10 7 8 9 8 8 8 8 8 8 7 8 8 7 7 9 9 8 8 8 6 4 5 5 5
7 7 6 7 7 8 8 7 7 7 7 7 8 8 8 8 9 10 10 7 7 7 7 7 9 10 9 9 8 8 8 7 6 6 6 7 6 5 6 5 5 5 5
6 6 7 7 7 8 7 7 6 6 7 7 7 7 8 8 9 10 11 7 7 7 6 6 6 9 10 10 9 8 8 7 6 6 5 5 4 4 4 4 4 5 5
6 7 7 7 7 6 7 7 6 6 7 7 7 7 6 6 7 8 11 11 9 7 7 6 6 8 9 10 9 8 8 7 5 4 4 4 4 4 3 4 4 5 5
7 8 8 7 7 7 7 7 6 6 6 6 6 6 6 5 6 9 10 11 11 8 6 7 7 8 8 8 8 8 7 5 4 4 4 4 4 4 3 3 3 4 5
7 8 7 7 7 7 6 6 6 6 6 6 6 6 6 5 5 5 5 6 8 8 6 7 8 8 7 6 6 5 5 4 5 5 4 4 3 3 3 3 3 3 3
8 8 7 7 7 7 7 7 8 8 7 7 7 6 6 7 7 7 6 5 5 5 4 4 4 5 5 5 4 4 4 4 4 4 4 4 3 3 3 3 3 3 3
7 7 6 6 6 6 6 7 8 9 9 10 11 10 8 9 9 9 10 10 9 8 5 5 5 5 5 5 5 5 4 4 4 4 4 4 4 4 4 3 3 4 4
8 8 6 6 6 6 6 6 6 6 8 10 10 11 10 9 9 9 9 9 9 8 6 6 5 5 5 5 5 5 4 4 4 4 4 5 4 4 4 4 4 4 4
8 8 7 7 6 6 6 6 6 6 5 5 6 9 9 9 9 9 8 6 6 6 6 6 6 5 5 5 5 5 4 4 4 4 5 5 4 4 4 4 4 4 4
8 7 6 6 6 6 6 6 6 6 6 5 5 5 7 7 8 8 8 6 6 6 5 6 5 5 5 5 4 4 4 4 4 4 4 5 5 4 5 5 4 5 5
7 8 7 6 6 6 6 6 6 6 6 6 5 5 4 4 4 5 6 6 6 5 5 5 5 5 5 5 4 4 4 4 4 4 4 4 4 4 5 5 5 5 5
6 7 7 6 6 6 6 6 6 6 6 6 6 6 6 5 5 5 5 5 6 6 5 5 5 5 5 4 4 5 5 4 4 4 4 4 4 4 4 4 5 4 4
6 6 6 6 6 6 6 6 6 6 6 6 5 5 7 6 5 5 5 5 5 5 5 5 5 5 5 5 5 5 5 5 5 4 4 4 4 4 4 4 4 4 4
6 6 6 6 6 7 7 6 5 6 6 5 5 5 5 5 5 5 5 5 4 4 4 4 5 4 4 4 5 5 5 5 5 4 4 4 4 4 4 4 4 4 4
6 7 7 6 5 6 6 5 5 5 5 5 5 5 5 5 5 5 5 4 4 4 4 4 5 5 6 5 4 5 5 5 4 4 5 5 4 4 4 4 4 5 5
6 6 6 6 6 6 6 5 5 5 5 5 5 5 5 5 5 5 4 4 4 4 4 4 4 5 6 6 6 5 6 7 6 5 4 4 4 4 4 4 4 4 4
6 6 6 6 6 6 6 6 6 6 6 5 5 5 5 5 5 4 4 4 4 4 4 4 5 5 6 6 6 7 7 7 7 6 5 4 4 4 4 4 4 4 4
Wind_Direction
223 227 229 232 233 236 238 242 244 246 246 249 251 251 253 256 259 259 259 262 261 262 259 260 262 265 265 263 264 266 265 265 270 279 284 292 288 289 296 298 297 295 295
226 229 233 238 237 238 242 245 244 244 242 242 244 246 248 252 255 257 260 260 260 260 260 259 261 262 262 266 265 265 266 267 270 279 283 285 284 288 292 295 298 296 296
226 230 235 240 241 244 248 249 245 245 245 241 240 241 244 247 250 253 256 258 258 259 258 257 261 262 263 265 267 268 268 269 269 274 281 285 285 286 291 294 295 296 297
229 234 240 246 249 254 256 254 250 247 247 245 242 242 243 244 247 250 252 256 257 258 258 258 260 259 261 264 265 267 269 271 271 273 278 282 283 288 286 291 294 296 294
237 243 247 252 255 257 256 254 253 250 248 248 247 247 246 245 243 246 249 252 255 257 255 255 256 259 264 265 266 269 270 270 272 274 276 280 280 285 286 291 290 297 292
241 248 253 254 256 256 256 255 254 253 251 248 244 245 247 246 243 243 249 250 251 253 255 256 256 254 256 259 264 268 270 268 269 270 272 273 279 280 285 284 287 292 290
246 251 252 254 256 258 258 256 254 254 252 250 249 247 248 248 243 244 245 248 250 251 252 254 255 254 256 259 259 260 263 266 267 269 268 270 277 277 278 277 275 280 283
249 251 252 253 256 260 258 257 257 255 251 250 250 249 252 252 245 247 247 245 247 249 249 250 253 255 251 255 259 261 263 264 264 263 266 273 279 282 275 274 278 281 282
250 252 252 252 257 259 258 259 260 257 255 254 253 251 252 253 246 246 247 247 245 248 248 248 249 251 252 253 256 259 264 266 266 266 271 276 277 277 276 269 270 271 279
252 255 255 253 253 257 259 261 260 257 256 258 256 254 253 254 248 244 242 243 245 248 248 246 244 249 253 250 250 253 259 266 268 266 268 272 272 269 263 254 257 260 272
258 257 256 254 254 257 260 259 258 257 257 255 257 256 254 254 252 246 239 236 240 245 246 246 244 246 252 251 251 253 259 271 268 263 266 270 270 270 272 267 262 256 258
262 260 259 259 258 255 255 258 256 252 253 251 254 259 256 252 251 246 239 237 240 242 244 247 247 248 254 254 250 253 260 262 260 259 259 263 266 270 275 276 270 266 263
263 262 263 262 260 253 251 253 253 250 250 249 249 255 259 253 249 247 245 240 237 240 245 245 249 250 253 251 249 252 251 247 248 252 256 263 269 269 270 272 271 271 272
262 265 264 262 263 258 253 247 245 246 248 248 247 251 257 256 249 240 238 238 238 240 245 242 242 244 243 249 250 245 243 244 246 251 258 265 266 260 258 260 266 275 278
263 265 265 262 261 260 256 251 248 248 245 246 249 249 251 255 249 241 243 239 233 233 235 238 236 233 232 233 239 242 239 237 244 249 254 256 258 257 260 264 266 266 266
261 262 262 262 260 259 262 265 252 250 254 252 255 255 257 258 259 249 246 246 240 226 223 231 233 234 236 236 237 238 237 238 240 245 251 252 254 255 258 260 257 257 262
256 259 261 260 258 258 256 259 269 265 250 250 251 251 251 254 255 250 245 241 235 225 228 232 235 236 238 239 239 239 241 241 240 239 244 249 251 252 252 253 252 256 261
257 255 254 257 255 254 252 252 254 259 266 265 254 251 253 254 253 247 236 231 229 222 229 234 236 236 237 237 237 238 239 238 237 240 244 243 243 246 248 250 251 255 262
257 256 254 254 253 252 251 250 249 249 253 261 267 260 251 253 250 240 224 222 228 230 230 232 233 234 235 236 238 238 237 236 237 239 243 245 241 240 244 248 252 257 261
256 252 251 254 253 252 249 247 246 246 249 253 254 255 251 240 237 230 222 224 228 232 232 233 231 230 232 233 235 236 237 237 236 238 242 243 242 239 241 244 248 251 255
255 253 246 251 251 249 247 244 243 243 247 251 252 248 242 241 239 235 231 229 229 230 231 231 230 228 228 230 231 232 235 240 238 237 239 241 239 239 241 243 246 249 255
250 250 249 251 251 248 247 245 244 244 245 249 255 251 243 243 240 238 234 234 235 233 231 229 230 229 228 227 227 229 234 238 237 234 236 238 239 239 239 240 243 248 252
247 248 249 249 248 247 247 245 242 243 244 246 248 248 244 241 241 241 240 238 236 236 233 229 229 230 229 228 228 228 232 236 235 230 231 235 237 238 238 238 239 247 251
245 246 247 247 245 244 244 244 242 242 243 243 242 243 244 243 243 242 241 240 238 236 233 231 230 228 227 231 233 232 233 234 229 229 228 230 235 237 236 238 241 245 250
246 246 245 245 244 244 244 243 242 240 240 240 241 242 243 243 243 241 238 235 232 232 231 232 230 227 225 229 235 236 232 230 233 230 224 226 230 234 235 235 239 246 251
245 245 246 245 242 241 241 241 242 241 241 240 240 241 241 241 240 240 236 232 231 232 232 234 229 228 230 234 234 236 236 234 232 231 228 226 227 232 232 234 238 243 250
Height
1490 1490 1489 1489 1489 1488 1487 1487 1486 1485 1484 1483 1482 1481 1480 1480 1479 1478 1477 1477 1476 1475 1474 1473 1472 1471 1470 1470 1469 1468 1467 1467 1464 1462 1462 1460 1459 1458 1456 1455 1454 1453 1451
1486 1486 1485 1485 1484 1484 1483 1482 1482 1481 1480 1479 1478 1477 1476 1476 1475 1474 1473 1472 1472 1471 1470 1469 1468 1467 1466 1465 1464 1463 1462 1462 1460 1457 1457 1456 1455 1453 1452 1451 1449 1448 1447
1482 1481 1481 1480 1480 1479 1479 1478 1477 1476 1475 1474 1473 1472 1472 1471 1470 1469 1469 1468 1467 1466 1465 1464 1463 1462 1461 1461 1460 1459 1458 1457 1456 1454 1452 1451 1450 1449 1448 1446 1445 1444 1443
1478 1477 1477 1476 1476 1475 1474 1473 1472 1471 1470 1469 1468 1468 1467 1466 1465 1465 1464 1463 1462 1461 1460 1459 1458 1458 1457 1456 1455 1455 1454 1452 1451 1450 1448 1447 1446 1445 1444 1442 1441 1439 1438
1474 1473 1472 1472 1471 1470 1469 1468 1468 1466 1465 1464 1463 1463 1462 1461 1460 1459 1458 1458 1457 1456 1455 1454 1454 1453 1452 1452 1451 1450 1449 1448 1447 1446 1444 1443 1441 1440 1439 1438 1436 1435 1433
1469 1469 1468 1467 1466 1465 1464 1463 1462 1461 1460 1459 1458 1457 1456 1455 1455 1454 1453 1452 1452 1451 1450 1449 1449 1448 1447 1447 1446 1446 1445 1444 1443 1442 1440 1439 1437 1436 1435 1434 1432 1430 1429
1464 1464 1463 1462 1461 1460 1459 1458 1457 1456 1455 1454 1453 1452 1451 1450 1449 1449 1448 1447 1446 1446 1445 1444 1444 1443 1443 1442 1441 1440 1440 1439 1438 1438 1435 1434 1433 1432 1431 1429 1428 1426 1425
1459 1458 1458 1457 1456 1455 1454 1452 1451 1450 1449 1448 1447 1446 1445 1444 1444 1443 1442 1441 1441 1440 1440 1439 1439 1438 1438 1437 1436 1435 1434 1433 1433 1432 1431 1429 1428 1427 1426 1425 1424 1422 1420
1454 1454 1453 1452 1451 1449 1448 1447 1446 1444 1443 1442 1441 1440 1439 1438 1438 1437 1437 1436 1435 1434 1434 1434 1433 1433 1433 1432 1431 1430 1429 1428 1427 1426 1425 1424 1423 1422 1422 1421 1419 1418 1416
1449 1449 1448 1447 1446 1445 1443 1442 1440 1439 1437 1436 1435 1434 1433 1432 1432 1431 1431 1430 1429 1429 1429 1428 1428 1428 1428 1427 1426 1425 1424 1423 1422 1421 1420 1419 1418 1417 1416 1416 1415 1414 1412
1445 1444 1443 1442 1441 1439 1438 1436 1435 1433 1432 1431 1430 1429 1428 1427 1426 1425 1424 1424 1424 1423 1423 1423 1423 1423 1423 1422 1421 1420 1419 1419 1417 1416 1415 1414 1413 1412 1411 1411 1410 1409 1408
1439 1438 1437 1436 1435 1434 1432 1431 1430 1428 1427 1426 1424 1423 1422 1421 1420 1419 1419 1419 1419 1418 1418 1418 1418 1418 1418 1417 1416 1416 1415 1414 1413 1412 1410 1409 1408 1407 1407 1406 1405 1404 1403
1434 1433 1432 1431 1429 1428 1427 1426 1424 1423 1422 1420 1419 1418 1417 1416 1415 1415 1414 1414 1414 1413 1413 1413 1413 1413 1413 1412 1412 1411 1411 1409 1408 1407 1406 1405 1404 1403 1402 1401 1400 1399 1398
1428 1427 1426 1425 1423 1422 1421 1420 1419 1418 1416 1415 1414 1413 1412 1411 1411 1410 1409 1409 1409 1409 1409 1408 1408 1408 1408 1407 1407 1406 1406 1405 1404 1403 1401 1401 1400 1399 1398 1397 1396 1395 1393
1423 1421 1420 1419 1418 1416 1415 1414 1413 1412 1411 1410 1409 1409 1408 1406 1406 1406 1405 1405 1404 1404 1404 1404 1404 1403 1403 1402 1402 1401 1401 1400 1399 1398 1397 1396 1395 1394 1393 1392 1391 1390 1389
1417 1415 1414 1413 1411 1410 1409 1408 1407 1406 1405 1405 1404 1403 1402 1402 1401 1401 1400 1400 1400 1400 1400 1399 1399 1398 1398 1398 1397 1396 1396 1395 1395 1394 1393 1392 1391 1390 1389 1388 1387 1386 1385
1411 1409 1408 1407 1405 1404 1403 1402 1401 1400 1399 1399 1398 1397 1397 1396 1396 1396 1395 1395 1395 1395 1395 1394 1394 1394 1393 1393 1393 1392 1391 1391 1390 1389 1389 1388 1387 1386 1385 1384 1383 1382 1381
1405 1403 1402 1401 1399 1398 1397 1397 1396 1394 1393 1392 1392 1392 1391 1391 1391 1391 1391 1391 1390 1390 1390 1390 1389 1389 1389 1389 1388 1388 1387 1387 1386 1385 1384 1383 1383 1382 1381 1380 1379 1378 1377
1399 1397 1396 1395 1393 1392 1392 1391 1390 1389 1388 1387 1387 1386 1386 1386 1385 1386 1385 1385 1385 1385 1385 1385 1385 1385 1384 1384 1384 1383 1383 1382 1381 1381 1380 1379 1379 1378 1377 1376 1375 1374 1373
1392 1391 1390 1389 1387 1387 1386 1385 1384 1384 1383 1382 1381 1381 1381 1380 1380 1380 1380 1380 1380 1380 1380 1380 1380 1380 1380 1380 1379 1379 1378 1378 1377 1377 1376 1375 1374 1373 1373 1372 1371 1370 1369
1386 1385 1384 1383 1382 1381 1380 1379 1379 1378 1377 1377 1376 1376 1376 1376 1375 1375 1375 1375 1375 1375 1375 1375 1375 1375 1375 1375 1375 1374 1374 1373 1373 1372 1372 1371 1370 1369 1368 1368 1367 1366 1365
1380 1379 1378 1377 1376 1375 1375 1374 1374 1373 1372 1372 1371 1371 1371 1371 1370 1370 1370 1370 1371 1371 1371 1371 1370 1370 1370 1370 1370 1370 1369 1369 1368 1368 1367 1367 1366 1365 1364 1364 1363 1362 1362
1374 1373 1372 1371 1370 1370 1369 1369 1368 1368 1367 1367 1367 1366 1366 1366 1366 1366 1366 1366 1366 1366 1366 1366 1366 1366 1366 1366 1366 1366 1365 1365 1365 1364 1364 1363 1362 1361 1361 1360 1359 1359 1358
1368 1367 1366 1365 1365 1364 1364 1363 1363 1363 1362 1362 1362 1362 1361 1361 1361 1361 1361 1361 1361 1361 1361 1361 1361 1361 1362 1361 1361 1361 1361 1361 1361 1360 1360 1359 1358 1358 1357 1356 1356 1355 1355
1362 1361 1360 1359 1359 1359 1358 1358 1358 1358 1357 1357 1357 1357 1357 1356 1356 1356 1356 1357 1357 1357 1357 1357 1357 1357 1357 1357 1357 1357 1357 1357 1357 1357 1356 1356 1355 1355 1354 1353 1353 1352 1352
1356 1355 1355 1354 1354 1354 1353 1353 1353 1353 1353 1352 1352 1352 1352 1352 1352 1352 1352 1352 1352 1353 1353 1353 1353 1353 1353 1353 1354 1354 1354 1354 1353 1353 1353 1352 1352 1352 1351 1351 1350 1350 1349